Weather in Khol'-Oozhu

Russia / Tyva Republic     50˚44′24″N   94˚24′49″E
temp.,
°C
wind,
m/s
gust,
m/s
humid.,
%
clouds,
%
prec.,
mm/h
press.,
hPa
HPBL,
m
17 january, sun
sun1701:00−26˚se0196100 0.0 104439
04:00−28˚ese019573 0.0 104329
07:00−28˚ne019570 0.0 104224
10:00−26˚e019661 0.0 104151
13:00−23˚s129153 0.0 1037203
16:00−23˚sse129180 0.0 1035147
19:00−26˚e118990 0.0 103330
22:00−26˚n0197100 0.0 103327
18 january, mon
mon1801:00−25˚e0193100 0.0 103320
04:00−26˚e0186100 0.0 103420
07:00−27˚e018579 0.0 103420
10:00−24˚se118787 0.0 103322
13:00−21˚s119482 0.0 1029102
16:00−22˚ssw119933 0.0 102835
19:00−24˚s019954 0.0 102821
22:00−25˚sw119958 0.0 102726
19 january, tue
tue1901:00−25˚ssw019864 0.0 102727
04:00−24˚s018899 0.0 102826
07:00−25˚ese018863 0.0 103020
10:00−23˚sse11924 0.0 103220
13:00−21˚ssw119715 0.0 103082
16:00−20˚ssw1198100 0.0 102870
19:00−23˚sse018798 0.0 103028
22:00−24˚wsw018284 0.0 103127
20 january, wed
wed2001:00−24˚sse018069 0.0 103129
04:00−22˚sw128298 0.0 103249
07:00−23˚ssw128799 0.0 103256
10:00−22˚ssw1292100 0.0 103254
13:00−19˚ssw229393 0.0 1029126
16:00−19˚sw1294100 0.0 102886
19:00−22˚wsw0192100 0.0 103027
22:00−22˚s0188100 0.0 103026
21 january, thu
thu2101:00−21˚s0185100 0.0 103026
04:00−20˚sw118799 0.0 103030
07:00−20˚s018599 0.0 103026
10:00−18˚s0182100 0.0 103043
13:00−17˚sw118798 0.0 102878
16:00−19˚ssw119254 0.0 102745
19:00−22˚ese119040 0.0 102721
22:00−22˚e019453 0.0 102623